Location: Novokuznetsk
(53.7500°N, 87.1000°E)
Time: 18:09:21
(UTC+06:00)

ISS - Pass Details

Date: 23 April 2026
Orbit: 414 x 424 km, 51.6° (Epoch: 18 May)

Event Time Altitude Azimuth Distance (km) Brightness Sun altitude
Exits shadow 04:04:27 - 215° (SW) 1,632 -1.3 -7.3°
Reaches altitude 10° 04:04:50 10° 212° (SSW) 1,497 -1.5 -7.3°
Maximum altitude 04:07:42 27° 153° (SSE) 854 -2.2 -6.9°
Drops below altitude 10° 04:10:36 10° 94° (E) 1,509 0.0 -6.5°
Sets 04:12:54 0° 82° (E) 2,378 1.5 -6.2°
